Location: Bailleul
(50.3375°N, 2.8513°E)
Time: 09:35:18
(UTC+00:00)

Cosmos 2278 Rocket - Pass Details

Date: 16 June 2021
Orbit: 840 x 847 km, 71.0° (Epoch: 03 August)

Event Time Altitude Azimuth Distance (km) Brightness Sun altitude
Rises 22:05:29 0° 332° (NNW) 3,411 7.4 -12.8°
Reaches altitude 10° 22:08:01 10° 337° (NNW) 2,474 6.1 -12.9°
Maximum altitude 22:13:33 51° 54° (NE) 1,057 2.8 -13.3°
Enters shadow 22:18:15 14° 127° (SE) 2,175 3.8 -13.6°
